Flag for Australia Weather past 2 weeks in Wagga Wagga, New South Wales, Australia

Now
32 °F

Sunny.


Feels Like: 32 °F
Forecast: 32 / 51 °F
Wind: 1 mph from North

Location: Wagga Airport

Current Time: Jul 4, 2015 at 9:11:05 AM

Latest Report: Jul 4, 2015 at 8:00 AM


Visibility: 10 mi

Pressure: 30.27 "Hg

Humidity: 93%

Dew point: 30 °F

Location of Wagga WaggaLocation

Historic Weather in Wagga Wagga — Graph

°F

Wagga Wagga temperature yesterday

Maximum temperature yesterday: 50 °F (at 2:00 PM)
Minimum temperature yesterday: 27 °F (at 7:00 AM)
Average temperature yesterday: 38 °F

Past Weeks' High & Low Weather Summary

 TemperatureHumidityPressure
High61 °F (Jun 24, 2:00 PM)100% (Jun 19, 8:00 AM)30.54 "Hg (Jun 19, 8:00 AM)
Low27 °F (Jul 3, 7:00 AM)47% (Jul 3, 3:00 PM)30.09 "Hg (Jun 19, 8:00 AM)
Average44 °F84%30.32 "Hg
* Reported Jun 19 8:00 AM — Jul 4 8:00 AM, Wagga Wagga, Weather by CustomWeather, © 2015

Note: Actual official high and low records may vary slightly from our data, if they occured in-between our weather recording intervals... More about our weather records

Advertising

Wagga Wagga weather history for previous 24 hours

 ConditionsComfort  
Time TempWeatherWind HumidityBarometerVisibility
8:00 AM
Sat, Jul 4
32 °FSunny.1 mph93%30.27 "Hg10 mi
7:00 AM32 °FSunny.No wind93%30.27 "Hg10 mi
6:00 AM32 °FClear.No wind93%30.24 "Hg10 mi
5:00 AM32 °FClear.No windN/A30.24 "HgN/A
4:00 AM32 °FClear.2 mphN/A30.24 "HgN/A
3:00 AM34 °FClear.2 mph93%30.24 "HgN/A
2:00 AM34 °FClear.No wind93%30.27 "HgN/A
1:00 AM34 °FClear.No wind93%30.27 "HgN/A
12:00 AM34 °FClear.No wind93%30.30 "HgN/A
11:00 PM
Fri, Jul 3
34 °FClear.3 mph93%30.27 "HgN/A
10:00 PM36 °FClear.No wind93%30.30 "Hg10 mi
9:00 PM36 °FPassing clouds.6 mph87%30.30 "HgN/A
8:00 PM37 °FPassing clouds.No wind87%30.30 "HgN/A
7:00 PM39 °FPassing clouds.1 mph81%30.30 "HgN/A
6:00 PM41 °FPassing clouds.3 mph70%30.30 "HgN/A
5:00 PM46 °FPassing clouds.1 mph66%30.30 "HgN/A
4:00 PM50 °FPassing clouds.2 mph54%30.30 "HgN/A
3:00 PM50 °FPassing clouds.2 mph47%30.27 "HgN/A
2:00 PM50 °FPassing clouds.3 mph50%30.30 "HgN/A
1:00 PM48 °FPassing clouds.3 mph54%30.30 "HgN/A
12:00 PM45 °FPassing clouds.2 mph61%30.33 "HgN/A
11:00 AM43 °FSunny.6 mph71%30.36 "Hg10 mi
10:00 AM39 °FSunny.7 mph75%30.36 "Hg10 mi
9:00 AM36 °FPassing clouds.5 mph60%30.36 "HgN/A
Weather by CustomWeather, © 2015

See weather overviewHow to use our weather pages